Time,TemperatureF,DewpointF,PressureIn,WindDirection,WindDirectionDegrees,WindSpeedMPH,WindSpeedGustMPH,Humidity,HourlyPrecipIn,Conditions,Clouds,dailyrainin,SoftwareType,DateUTC
2013-04-13 00:03:00,46.2,40.1,29.97,ESE,112,0.0,0.0,79,0.00,,,0.00,WUHU21623XXSP,2013-04-13 04:03:00,
2013-04-13 00:08:00,46.6,40.1,29.97,ESE,112,1.4,1.7,78,0.00,,,0.00,WUHU21623XXSP,2013-04-13 04:08:00,
2013-04-13 00:13:00,46.8,40.3,29.97,ESE,112,0.0,1.7,78,0.00,,,0.00,WUHU21623XXSP,2013-04-13 04:13:00,
2013-04-13 00:18:00,46.6,40.5,29.98,ESE,112,0.0,1.7,79,0.00,,,0.00,WUHU21623XXSP,2013-04-13 04:18:00,
2013-04-13 00:23:00,46.2,40.1,29.98,ESE,112,0.0,0.0,79,0.00,,,0.00,WUHU21623XXSP,2013-04-13 04:23:00,
2013-04-13 00:28:00,46.2,40.1,29.98,ESE,112,0.0,0.0,79,0.00,,,0.00,WUHU21623XXSP,2013-04-13 04:28:00,
2013-04-13 00:33:00,45.7,39.6,29.98,East,90,0.0,0.0,79,0.00,,,0.00,WUHU21623XXSP,2013-04-13 04:33:00,
2013-04-13 00:38:00,45.7,39.9,29.98,ESE,112,0.0,0.0,80,0.00,,,0.00,WUHU21623XXSP,2013-04-13 04:38:00,
2013-04-13 00:43:00,45.7,39.9,29.98,ESE,112,0.0,0.0,80,0.00,,,0.00,WUHU21623XXSP,2013-04-13 04:43:00,
2013-04-13 00:48:00,45.5,39.7,29.98,ESE,112,0.0,0.0,80,0.00,,,0.00,WUHU21623XXSP,2013-04-13 04:48:00,
2013-04-13 00:53:00,45.3,39.9,29.99,East,90,0.0,0.0,81,0.00,,,0.00,WUHU21623XXSP,2013-04-13 04:53:00,
2013-04-13 00:58:00,45.0,39.5,29.99,East,90,0.0,0.0,81,0.00,,,0.00,WUHU21623XXSP,2013-04-13 04:58:00,
2013-04-13 01:03:00,45.0,39.8,29.99,ESE,112,0.0,0.0,82,0.00,,,0.00,WUHU21623XXSP,2013-04-13 05:03:00,
2013-04-13 01:08:00,44.8,39.6,29.99,South,180,0.0,0.0,82,0.00,,,0.00,WUHU21623XXSP,2013-04-13 05:08:00,
2013-04-13 01:13:00,44.4,39.3,29.99,South,180,0.0,0.0,82,0.00,,,0.00,WUHU21623XXSP,2013-04-13 05:13:00,
2013-04-13 01:18:00,44.2,39.1,29.99,ESE,112,0.0,0.0,82,0.00,,,0.00,WUHU21623XXSP,2013-04-13 05:18:00,
2013-04-13 01:23:00,44.2,39.1,30.00,ESE,112,0.0,0.0,82,0.00,,,0.00,WUHU21623XXSP,2013-04-13 05:23:00,
2013-04-13 01:28:00,44.1,39.2,30.00,South,180,1.7,1.9,83,0.00,,,0.00,WUHU21623XXSP,2013-04-13 05:28:00,
2013-04-13 01:33:00,43.7,38.9,30.00,ESE,112,0.0,1.9,83,0.00,,,0.00,WUHU21623XXSP,2013-04-13 05:33:00,
2013-04-13 01:38:00,43.5,38.7,30.00,South,180,0.0,1.9,83,0.00,,,0.00,WUHU21623XXSP,2013-04-13 05:38:00,
2013-04-13 01:43:00,43.5,38.7,30.00,ESE,112,0.0,0.0,83,0.00,,,0.00,WUHU21623XXSP,2013-04-13 05:43:00,
2013-04-13 01:48:00,43.5,39.0,30.00,ESE,112,0.0,0.0,84,0.00,,,0.00,WUHU21623XXSP,2013-04-13 05:48:00,
2013-04-13 01:53:00,43.5,39.0,30.00,ESE,112,0.0,0.0,84,0.00,,,0.00,WUHU21623XXSP,2013-04-13 05:53:00,
2013-04-13 01:58:00,43.5,39.0,30.00,ESE,112,0.0,0.0,84,0.00,,,0.00,WUHU21623XXSP,2013-04-13 05:58:00,
2013-04-13 02:03:00,43.5,39.0,30.00,ESE,112,0.0,0.0,84,0.00,,,0.00,WUHU21623XXSP,2013-04-13 06:03:00,
2013-04-13 02:15:00,43.5,39.0,29.99,ESE,112,0.0,0.0,84,0.00,,,0.00,WUHU21623XXSP,2013-04-13 06:15:00,
2013-04-13 02:20:00,43.5,39.3,29.99,ESE,112,0.0,0.0,85,0.00,,,0.00,WUHU21623XXSP,2013-04-13 06:20:00,
2013-04-13 02:25:00,43.3,39.1,29.99,ESE,112,0.0,0.0,85,0.00,,,0.00,WUHU21623XXSP,2013-04-13 06:25:00,
2013-04-13 02:30:00,43.3,39.1,29.99,ESE,112,0.0,0.0,85,0.00,,,0.00,WUHU21623XXSP,2013-04-13 06:30:00,
2013-04-13 02:35:00,43.2,38.9,29.99,ESE,112,0.0,0.0,85,0.00,,,0.00,WUHU21623XXSP,2013-04-13 06:35:00,
2013-04-13 02:40:00,43.2,38.9,29.99,ESE,112,0.0,0.0,85,0.00,,,0.00,WUHU21623XXSP,2013-04-13 06:40:00,
2013-04-13 02:45:00,43.3,39.1,29.99,ESE,112,0.0,0.0,85,0.00,,,0.00,WUHU21623XXSP,2013-04-13 06:45:00,
2013-04-13 02:50:00,43.5,39.6,29.99,ESE,112,0.0,0.0,86,0.00,,,0.00,WUHU21623XXSP,2013-04-13 06:50:00,
2013-04-13 02:55:00,43.5,39.6,29.99,ESE,112,0.0,0.0,86,0.00,,,0.00,WUHU21623XXSP,2013-04-13 06:55:00,
2013-04-13 03:00:00,43.5,39.6,30.00,ESE,112,0.0,0.0,86,0.00,,,0.00,WUHU21623XXSP,2013-04-13 07:00:00,
2013-04-13 03:06:00,43.5,39.6,29.99,ESE,112,0.0,0.0,86,0.00,,,0.00,WUHU21623XXSP,2013-04-13 07:06:00,
2013-04-13 03:11:00,43.5,39.6,29.99,ESE,112,0.0,0.0,86,0.00,,,0.00,WUHU21623XXSP,2013-04-13 07:11:00,
2013-04-13 03:16:00,43.5,39.6,29.99,ESE,112,0.0,0.0,86,0.00,,,0.00,WUHU21623XXSP,2013-04-13 07:16:00,
2013-04-13 03:22:00,43.3,39.4,29.99,ESE,112,0.0,0.0,86,0.00,,,0.00,WUHU21623XXSP,2013-04-13 07:22:00,
2013-04-13 03:27:00,43.2,39.5,30.00,ESE,112,0.0,0.0,87,0.00,,,0.00,WUHU21623XXSP,2013-04-13 07:27:00,
2013-04-13 03:32:00,43.2,39.5,30.00,ESE,112,0.0,0.0,87,0.00,,,0.00,WUHU21623XXSP,2013-04-13 07:32:00,
2013-04-13 03:37:00,43.2,39.5,30.00,ESE,112,0.0,0.0,87,0.00,,,0.00,WUHU21623XXSP,2013-04-13 07:37:00,
2013-04-13 03:43:00,43.0,39.4,30.00,ESE,112,0.0,0.0,87,0.00,,,0.00,WUHU21623XXSP,2013-04-13 07:43:00,
2013-04-13 03:48:00,42.8,39.2,30.00,ESE,112,0.0,0.0,87,0.00,,,0.00,WUHU21623XXSP,2013-04-13 07:48:00,
2013-04-13 03:53:00,42.8,39.2,30.00,ESE,112,0.0,0.0,87,0.00,,,0.00,WUHU21623XXSP,2013-04-13 07:53:00,
2013-04-13 03:58:00,42.6,39.0,30.00,ESE,112,0.0,0.0,87,0.00,,,0.00,WUHU21623XXSP,2013-04-13 07:58:00,
2013-04-13 04:03:00,42.6,39.0,30.00,ESE,112,2.1,2.4,87,0.00,,,0.00,WUHU21623XXSP,2013-04-13 08:03:00,
2013-04-13 04:08:00,42.6,39.0,30.01,ESE,112,2.3,2.7,87,0.00,,,0.00,WUHU21623XXSP,2013-04-13 08:08:00,
2013-04-13 04:13:00,43.5,39.9,30.00,ESE,112,2.3,2.7,87,0.00,,,0.00,WUHU21623XXSP,2013-04-13 08:13:00,
2013-04-13 04:18:00,43.9,40.0,30.01,ESE,112,0.0,2.7,86,0.00,,,0.00,WUHU21623XXSP,2013-04-13 08:18:00,
2013-04-13 04:23:00,43.9,40.0,30.01,East,90,0.0,2.7,86,0.00,,,0.00,WUHU21623XXSP,2013-04-13 08:23:00,
2013-04-13 04:28:00,43.5,39.6,30.01,East,90,0.0,1.9,86,0.00,,,0.00,WUHU21623XXSP,2013-04-13 08:28:00,
2013-04-13 04:33:00,43.2,39.2,30.01,East,90,0.0,1.9,86,0.00,,,0.00,WUHU21623XXSP,2013-04-13 08:33:00,
2013-04-13 04:38:00,43.0,39.1,30.01,East,90,0.0,1.9,86,0.00,,,0.00,WUHU21623XXSP,2013-04-13 08:38:00,
2013-04-13 04:43:00,42.6,38.7,30.01,ESE,112,0.0,1.9,86,0.00,,,0.00,WUHU21623XXSP,2013-04-13 08:43:00,
2013-04-13 04:49:00,42.4,38.5,30.01,ESE,112,0.0,0.0,86,0.00,,,0.00,WUHU21623XXSP,2013-04-13 08:49:00,
2013-04-13 04:54:00,42.3,38.3,30.01,East,90,0.0,0.0,86,0.00,,,0.00,WUHU21623XXSP,2013-04-13 08:54:00,
2013-04-13 04:59:00,41.7,37.8,30.01,East,90,0.0,0.0,86,0.00,,,0.00,WUHU21623XXSP,2013-04-13 08:59:00,
2013-04-13 05:04:00,41.7,38.1,30.01,ESE,112,0.0,0.0,87,0.00,,,0.00,WUHU21623XXSP,2013-04-13 09:04:00,
2013-04-13 05:09:00,41.5,37.9,30.01,East,90,0.0,1.9,87,0.00,,,0.00,WUHU21623XXSP,2013-04-13 09:09:00,
2013-04-13 05:14:00,41.4,37.7,30.01,ESE,112,0.0,1.9,87,0.00,,,0.00,WUHU21623XXSP,2013-04-13 09:14:00,
2013-04-13 05:19:00,41.4,37.7,30.01,ESE,112,0.0,0.0,87,0.00,,,0.00,WUHU21623XXSP,2013-04-13 09:19:00,
2013-04-13 05:24:00,41.2,37.6,30.01,South,180,0.0,0.0,87,0.00,,,0.00,WUHU21623XXSP,2013-04-13 09:24:00,
2013-04-13 05:29:00,41.0,37.4,30.02,East,90,0.0,0.0,87,0.00,,,0.00,WUHU21623XXSP,2013-04-13 09:29:00,
2013-04-13 05:34:00,40.8,37.2,30.02,ESE,112,0.0,0.0,87,0.00,,,0.00,WUHU21623XXSP,2013-04-13 09:34:00,
2013-04-13 05:39:00,40.8,37.2,30.02,East,90,0.0,0.0,87,0.00,,,0.00,WUHU21623XXSP,2013-04-13 09:39:00,
2013-04-13 05:45:00,40.8,37.2,30.02,ESE,112,0.0,0.0,87,0.00,,,0.00,WUHU21623XXSP,2013-04-13 09:45:00,
2013-04-13 05:50:00,40.8,37.2,30.02,East,90,0.0,0.0,87,0.00,,,0.00,WUHU21623XXSP,2013-04-13 09:50:00,
2013-04-13 05:55:00,40.8,37.5,30.02,ESE,112,0.0,0.0,88,0.00,,,0.00,WUHU21623XXSP,2013-04-13 09:55:00,
2013-04-13 06:00:00,40.8,37.5,30.02,NNE,22,0.0,0.0,88,0.00,,,0.00,WUHU21623XXSP,2013-04-13 10:00:00,
2013-04-13 06:05:00,40.8,37.5,30.03,East,90,0.0,0.0,88,0.00,,,0.00,WUHU21623XXSP,2013-04-13 10:05:00,
2013-04-13 06:10:00,40.6,37.3,30.03,East,90,0.0,0.0,88,0.00,,,0.00,WUHU21623XXSP,2013-04-13 10:10:00,
2013-04-13 06:15:00,40.6,37.3,30.03,ESE,112,0.0,0.0,88,0.00,,,0.00,WUHU21623XXSP,2013-04-13 10:15:00,
2013-04-13 06:20:00,40.6,37.3,30.03,East,90,0.0,0.0,88,0.00,,,0.00,WUHU21623XXSP,2013-04-13 10:20:00,
2013-04-13 06:25:00,40.3,37.0,30.03,East,90,0.0,0.0,88,0.00,,,0.00,WUHU21623XXSP,2013-04-13 10:25:00,
2013-04-13 06:30:00,40.3,37.0,30.03,East,90,0.0,1.7,88,0.00,,,0.00,WUHU21623XXSP,2013-04-13 10:30:00,
2013-04-13 06:35:00,40.3,37.0,30.03,ESE,112,2.1,2.4,88,0.00,,,0.00,WUHU21623XXSP,2013-04-13 10:35:00,
2013-04-13 06:40:00,40.1,36.8,30.03,East,90,0.0,2.4,88,0.00,,,0.00,WUHU21623XXSP,2013-04-13 10:40:00,
2013-04-13 06:46:00,40.3,37.0,30.04,ESE,112,0.0,2.4,88,0.00,,,0.00,WUHU21623XXSP,2013-04-13 10:46:00,
2013-04-13 06:51:00,40.3,37.0,30.04,ESE,112,0.0,1.9,88,0.00,,,0.00,WUHU21623XXSP,2013-04-13 10:51:00,
2013-04-13 06:56:00,40.3,37.0,30.04,ESE,112,0.0,0.0,88,0.00,,,0.00,WUHU21623XXSP,2013-04-13 10:56:00,
2013-04-13 07:01:00,40.3,37.0,30.04,ESE,112,0.0,0.0,88,0.00,,,0.00,WUHU21623XXSP,2013-04-13 11:01:00,
2013-04-13 07:06:00,40.5,37.1,30.04,ESE,112,0.0,0.0,88,0.00,,,0.00,WUHU21623XXSP,2013-04-13 11:06:00,
2013-04-13 07:12:00,41.4,38.0,30.04,ESE,112,0.0,2.7,88,0.00,,,0.00,WUHU21623XXSP,2013-04-13 11:12:00,
2013-04-13 07:17:00,40.8,37.5,30.05,East,90,0.0,2.7,88,0.00,,,0.00,WUHU21623XXSP,2013-04-13 11:17:00,
2013-04-13 07:22:00,40.8,37.5,30.05,NNE,22,0.0,0.0,88,0.00,,,0.00,WUHU21623XXSP,2013-04-13 11:22:00,
2013-04-13 07:27:00,40.6,37.3,30.06,East,90,0.0,0.0,88,0.00,,,0.00,WUHU21623XXSP,2013-04-13 11:27:00,
2013-04-13 07:32:00,40.6,37.3,30.06,ESE,112,0.0,0.0,88,0.00,,,0.00,WUHU21623XXSP,2013-04-13 11:32:00,
2013-04-13 07:37:00,40.5,37.1,30.06,East,90,0.0,0.0,88,0.00,,,0.00,WUHU21623XXSP,2013-04-13 11:37:00,
2013-04-13 07:42:00,40.3,37.0,30.06,East,90,0.0,0.0,88,0.00,,,0.00,WUHU21623XXSP,2013-04-13 11:42:00,
2013-04-13 07:47:00,40.6,37.3,30.05,East,90,0.0,0.0,88,0.00,,,0.00,WUHU21623XXSP,2013-04-13 11:47:00,
2013-04-13 07:52:00,40.8,37.5,30.05,East,90,0.0,0.0,88,0.00,,,0.00,WUHU21623XXSP,2013-04-13 11:52:00,
2013-04-13 07:57:00,41.9,38.6,30.06,ESE,112,0.0,0.0,88,0.00,,,0.00,WUHU21623XXSP,2013-04-13 11:57:00,
2013-04-13 08:03:00,43.0,39.7,30.06,East,90,0.0,0.0,88,0.00,,,0.00,WUHU21623XXSP,2013-04-13 12:03:00,
2013-04-13 08:08:00,43.2,39.8,30.07,East,90,0.0,0.0,88,0.00,,,0.00,WUHU21623XXSP,2013-04-13 12:08:00,
2013-04-13 08:13:00,44.8,41.5,30.07,ESE,112,0.0,0.0,88,0.00,,,0.00,WUHU21623XXSP,2013-04-13 12:13:00,
2013-04-13 08:18:00,45.7,42.4,30.07,ESE,112,0.0,0.0,88,0.00,,,0.00,WUHU21623XXSP,2013-04-13 12:18:00,
2013-04-13 08:23:00,46.6,43.3,30.07,ESE,112,0.0,0.0,88,0.00,,,0.00,WUHU21623XXSP,2013-04-13 12:23:00,
2013-04-13 08:28:00,47.1,43.5,30.07,East,90,0.0,0.0,87,0.00,,,0.00,WUHU21623XXSP,2013-04-13 12:28:00,
2013-04-13 08:33:00,48.0,44.3,30.08,ESE,112,0.0,0.0,87,0.00,,,0.00,WUHU21623XXSP,2013-04-13 12:33:00,
2013-04-13 08:38:00,49.1,44.7,30.08,North,0,0.0,0.0,86,0.00,,,0.00,WUHU21623XXSP,2013-04-13 12:38:00,
2013-04-13 08:44:00,49.3,44.9,30.08,West,270,0.0,0.0,85,0.00,,,0.00,WUHU21623XXSP,2013-04-13 12:44:00,
2013-04-13 08:49:00,49.8,45.1,30.08,West,270,0.0,0.0,84,0.00,,,0.00,WUHU21623XXSP,2013-04-13 12:49:00,
2013-04-13 08:54:00,50.4,45.3,30.09,SSW,202,0.0,0.0,83,0.00,,,0.00,WUHU21623XXSP,2013-04-13 12:54:00,
2013-04-13 08:59:00,50.7,45.4,30.09,North,0,0.0,0.0,82,0.00,,,0.00,WUHU21623XXSP,2013-04-13 12:59:00,
2013-04-13 09:04:00,51.6,46.3,30.09,North,0,0.0,0.0,82,0.00,,,0.00,WUHU21623XXSP,2013-04-13 13:04:00,
2013-04-13 09:09:00,52.5,45.9,30.09,WNW,292,0.0,0.0,78,0.00,,,0.00,WUHU21623XXSP,2013-04-13 13:09:00,
2013-04-13 09:14:00,53.2,46.2,30.09,WNW,292,0.0,0.0,77,0.00,,,0.00,WUHU21623XXSP,2013-04-13 13:14:00,
2013-04-13 09:19:00,53.8,46.0,30.09,North,0,0.0,0.0,75,0.00,,,0.00,WUHU21623XXSP,2013-04-13 13:19:00,
2013-04-13 09:24:00,55.0,46.5,30.09,West,270,0.0,0.0,73,0.00,,,0.00,WUHU21623XXSP,2013-04-13 13:24:00,
2013-04-13 09:30:00,55.2,46.0,30.09,WNW,292,0.0,0.0,71,0.00,,,0.00,WUHU21623XXSP,2013-04-13 13:30:00,
2013-04-13 09:35:00,55.9,46.3,30.09,WNW,292,0.0,0.0,70,0.00,,,0.00,WUHU21623XXSP,2013-04-13 13:35:00,
2013-04-13 09:40:00,55.9,45.9,30.09,West,270,2.1,2.4,69,0.00,,,0.00,WUHU21623XXSP,2013-04-13 13:40:00,
2013-04-13 09:45:00,56.5,46.0,30.09,East,90,0.0,2.4,68,0.00,,,0.00,WUHU21623XXSP,2013-04-13 13:45:00,
2013-04-13 09:50:00,57.4,46.5,30.09,WNW,292,0.0,2.4,67,0.00,,,0.00,WUHU21623XXSP,2013-04-13 13:50:00,
2013-04-13 09:55:00,57.7,45.2,30.09,East,90,2.6,3.0,63,0.00,,,0.00,WUHU21623XXSP,2013-04-13 13:55:00,
2013-04-13 10:00:00,57.0,44.9,30.09,NNE,22,0.0,3.0,64,0.00,,,0.00,WUHU21623XXSP,2013-04-13 14:00:00,
2013-04-13 10:05:00,57.7,45.6,30.09,WNW,292,2.6,3.0,64,0.00,,,0.00,WUHU21623XXSP,2013-04-13 14:05:00,
2013-04-13 10:10:00,58.3,46.1,30.09,WNW,292,0.0,3.0,64,0.00,,,0.00,WUHU21623XXSP,2013-04-13 14:10:00,
2013-04-13 10:15:00,57.7,44.0,30.10,WNW,292,0.0,6.8,60,0.00,,,0.00,WUHU21623XXSP,2013-04-13 14:15:00,
2013-04-13 10:21:00,57.7,44.8,30.10,WNW,292,0.0,6.8,62,0.00,,,0.00,WUHU21623XXSP,2013-04-13 14:21:00,
2013-04-13 10:27:00,58.6,45.2,30.10,WNW,292,0.0,0.0,61,0.00,,,0.00,WUHU21623XXSP,2013-04-13 14:27:00,
2013-04-13 10:32:00,58.5,44.2,30.10,West,270,1.7,3.8,59,0.00,,,0.00,WUHU21623XXSP,2013-04-13 14:32:00,
2013-04-13 10:37:00,58.3,44.5,30.10,WNW,292,0.0,4.1,60,0.00,,,0.00,WUHU21623XXSP,2013-04-13 14:37:00,
2013-04-13 10:42:00,58.6,43.4,30.10,West,270,2.1,4.1,57,0.00,,,0.00,WUHU21623XXSP,2013-04-13 14:42:00,
2013-04-13 10:47:00,58.8,43.1,30.10,WNW,292,0.0,2.4,56,0.00,,,0.00,WUHU21623XXSP,2013-04-13 14:47:00,
2013-04-13 10:53:00,58.8,43.6,30.10,North,0,1.7,2.4,57,0.00,,,0.00,WUHU21623XXSP,2013-04-13 14:53:00,
2013-04-13 10:59:00,59.7,43.0,30.10,South,180,2.1,2.7,54,0.00,,,0.00,WUHU21623XXSP,2013-04-13 14:59:00,
2013-04-13 11:04:00,60.1,42.9,30.09,North,0,0.0,3.0,53,0.00,,,0.00,WUHU21623XXSP,2013-04-13 15:04:00,
2013-04-13 11:09:00,60.6,43.4,30.10,WNW,292,0.0,3.0,52,0.00,,,0.00,WUHU21623XXSP,2013-04-13 15:09:00,
2013-04-13 11:14:00,60.6,42.9,30.10,West,270,3.5,4.1,52,0.00,,,0.00,WUHU21623XXSP,2013-04-13 15:14:00,
2013-04-13 11:19:00,60.6,42.9,30.10,South,180,0.0,4.1,52,0.00,,,0.00,WUHU21623XXSP,2013-04-13 15:19:00,
2013-04-13 11:24:00,61.3,44.0,30.10,WNW,292,0.0,4.1,53,0.00,,,0.00,WUHU21623XXSP,2013-04-13 15:24:00,
2013-04-13 11:29:00,61.5,43.7,30.10,West,270,0.0,3.0,52,0.00,,,0.00,WUHU21623XXSP,2013-04-13 15:29:00,
2013-04-13 11:34:00,61.5,43.7,30.11,SSW,202,4.9,5.7,52,0.00,,,0.00,WUHU21623XXSP,2013-04-13 15:34:00,
2013-04-13 11:39:00,61.0,42.2,30.10,ESE,112,0.0,5.7,50,0.00,,,0.00,WUHU21623XXSP,2013-04-13 15:39:00,
2013-04-13 11:44:00,61.3,43.5,30.11,WNW,292,1.7,5.7,52,0.00,,,0.00,WUHU21623XXSP,2013-04-13 15:44:00,
2013-04-13 11:50:00,61.9,43.1,30.10,WNW,292,3.3,3.8,50,0.00,,,0.00,WUHU21623XXSP,2013-04-13 15:50:00,
2013-04-13 11:55:00,61.9,42.5,30.10,SSW,202,1.2,3.8,49,0.00,,,0.00,WUHU21623XXSP,2013-04-13 15:55:00,
2013-04-13 12:00:00,61.7,42.9,30.10,West,270,0.0,5.7,50,0.00,,,0.00,WUHU21623XXSP,2013-04-13 16:00:00,
2013-04-13 12:05:00,62.2,42.8,30.10,WNW,292,0.0,5.7,49,0.00,,,0.00,WUHU21623XXSP,2013-04-13 16:05:00,
2013-04-13 12:10:00,62.8,43.3,30.09,West,270,2.6,3.0,49,0.00,,,0.00,WUHU21623XXSP,2013-04-13 16:10:00,
2013-04-13 12:15:00,63.3,43.2,30.10,East,90,0.0,3.0,48,0.00,,,0.00,WUHU21623XXSP,2013-04-13 16:15:00,
2013-04-13 12:20:00,64.2,43.4,30.10,West,270,0.0,3.0,47,0.00,,,0.00,WUHU21623XXSP,2013-04-13 16:20:00,
2013-04-13 12:25:00,64.2,42.9,30.10,West,270,3.5,4.1,46,0.00,,,0.00,WUHU21623XXSP,2013-04-13 16:25:00,
2013-04-13 12:30:00,64.6,42.6,30.10,South,180,2.1,7.0,45,0.00,,,0.00,WUHU21623XXSP,2013-04-13 16:30:00,
2013-04-13 12:35:00,64.2,42.3,30.10,South,180,4.7,7.0,45,0.00,,,0.00,WUHU21623XXSP,2013-04-13 16:35:00,
2013-04-13 12:40:00,64.6,42.6,30.10,SSW,202,4.0,6.8,45,0.00,,,0.00,WUHU21623XXSP,2013-04-13 16:40:00,
2013-04-13 12:45:00,64.6,42.0,30.10,SSW,202,0.0,5.7,44,0.00,,,0.00,WUHU21623XXSP,2013-04-13 16:45:00,
2013-04-13 12:50:00,64.4,41.3,30.10,West,270,0.0,5.7,43,0.00,,,0.00,WUHU21623XXSP,2013-04-13 16:50:00,
2013-04-13 12:55:00,65.8,43.2,30.09,SSW,202,5.8,6.8,44,0.00,,,0.00,WUHU21623XXSP,2013-04-13 16:55:00,
2013-04-13 13:01:00,65.8,42.6,30.09,WNW,292,0.0,7.0,43,0.00,,,0.00,WUHU21623XXSP,2013-04-13 17:01:00,
2013-04-13 13:07:00,64.9,40.6,30.09,South,180,1.7,7.0,41,0.00,,,0.00,WUHU21623XXSP,2013-04-13 17:07:00,
2013-04-13 13:13:00,65.5,41.1,30.09,WNW,292,0.0,7.0,41,0.00,,,0.00,WUHU21623XXSP,2013-04-13 17:13:00,
2013-04-13 13:18:00,65.1,40.8,30.08,West,270,2.9,3.3,41,0.00,,,0.00,WUHU21623XXSP,2013-04-13 17:18:00,
2013-04-13 13:23:00,65.1,40.2,30.07,SSW,202,2.6,3.8,40,0.00,,,0.00,WUHU21623XXSP,2013-04-13 17:23:00,
2013-04-13 13:28:00,66.2,41.2,30.07,West,270,2.6,5.7,40,0.00,,,0.00,WUHU21623XXSP,2013-04-13 17:28:00,
2013-04-13 13:33:00,65.5,40.5,30.07,South,180,2.9,7.6,40,0.00,,,0.00,WUHU21623XXSP,2013-04-13 17:33:00,
2013-04-13 13:38:00,65.7,41.3,30.07,West,270,0.0,8.7,41,0.00,,,0.00,WUHU21623XXSP,2013-04-13 17:38:00,
2013-04-13 13:43:00,66.2,41.2,30.07,West,270,2.1,8.7,40,0.00,,,0.00,WUHU21623XXSP,2013-04-13 17:43:00,
2013-04-13 13:49:00,66.9,41.8,30.06,West,270,3.8,4.4,40,0.00,,,0.00,WUHU21623XXSP,2013-04-13 17:49:00,
2013-04-13 13:54:00,67.5,41.6,30.06,West,270,6.1,7.0,39,0.00,,,0.00,WUHU21623XXSP,2013-04-13 17:54:00,
2013-04-13 13:59:00,66.2,40.5,30.06,SSW,202,2.6,7.0,39,0.00,,,0.00,WUHU21623XXSP,2013-04-13 17:59:00,
2013-04-13 14:04:00,66.6,41.5,30.06,West,270,2.6,7.0,40,0.00,,,0.00,WUHU21623XXSP,2013-04-13 18:04:00,
2013-04-13 14:09:00,67.6,40.3,30.06,WNW,292,2.6,3.0,37,0.00,,,0.00,WUHU21623XXSP,2013-04-13 18:09:00,
2013-04-13 14:14:00,68.2,41.5,30.06,West,270,0.0,3.0,38,0.00,,,0.00,WUHU21623XXSP,2013-04-13 18:14:00,
2013-04-13 14:19:00,68.4,41.6,30.06,South,180,1.2,6.0,38,0.00,,,0.00,WUHU21623XXSP,2013-04-13 18:19:00,
2013-04-13 14:25:00,68.9,41.4,30.05,WNW,292,1.7,6.0,37,0.00,,,0.00,WUHU21623XXSP,2013-04-13 18:25:00,
2013-04-13 14:30:00,69.1,41.6,30.05,West,270,2.1,5.7,37,0.00,,,0.00,WUHU21623XXSP,2013-04-13 18:30:00,
2013-04-13 14:35:00,69.4,41.9,30.05,WNW,292,0.0,3.8,37,0.00,,,0.00,WUHU21623XXSP,2013-04-13 18:35:00,
2013-04-13 14:40:00,69.4,41.1,30.05,North,0,2.1,4.4,36,0.00,,,0.00,WUHU21623XXSP,2013-04-13 18:40:00,
2013-04-13 14:45:00,69.4,40.4,30.05,SSW,202,4.7,5.4,35,0.00,,,0.00,WUHU21623XXSP,2013-04-13 18:45:00,
2013-04-13 14:50:00,68.7,40.5,30.05,SSW,202,3.8,6.8,36,0.00,,,0.00,WUHU21623XXSP,2013-04-13 18:50:00,
2013-04-13 14:55:00,68.9,40.7,30.05,West,270,2.1,6.8,36,0.00,,,0.00,WUHU21623XXSP,2013-04-13 18:55:00,
2013-04-13 15:00:00,69.4,40.4,30.04,West,270,0.0,4.6,35,0.00,,,0.00,WUHU21623XXSP,2013-04-13 19:00:00,
2013-04-13 15:05:00,70.0,41.6,30.04,SSW,202,2.1,4.6,36,0.00,,,0.00,WUHU21623XXSP,2013-04-13 19:05:00,
2013-04-13 15:10:00,70.2,41.1,30.04,North,0,1.4,2.7,35,0.00,,,0.00,WUHU21623XXSP,2013-04-13 19:10:00,
2013-04-13 15:15:00,71.2,42.0,30.04,SSW,202,2.9,3.3,35,0.00,,,0.00,WUHU21623XXSP,2013-04-13 19:15:00,
2013-04-13 15:20:00,71.8,41.8,30.04,West,270,0.0,3.3,34,0.00,,,0.00,WUHU21623XXSP,2013-04-13 19:20:00,
2013-04-13 15:25:00,70.5,39.9,30.04,SSW,202,4.9,5.7,33,0.00,,,0.00,WUHU21623XXSP,2013-04-13 19:25:00,
2013-04-13 15:30:00,70.0,40.2,30.04,SSW,202,3.8,5.7,34,0.00,,,0.00,WUHU21623XXSP,2013-04-13 19:30:00,
2013-04-13 15:35:00,70.3,40.5,30.04,West,270,1.7,5.7,34,0.00,,,0.00,WUHU21623XXSP,2013-04-13 19:35:00,
2013-04-13 15:40:00,70.7,40.8,30.04,WNW,292,0.0,4.4,34,0.00,,,0.00,WUHU21623XXSP,2013-04-13 19:40:00,
2013-04-13 15:45:00,71.4,41.5,30.04,WNW,292,0.0,2.7,34,0.00,,,0.00,WUHU21623XXSP,2013-04-13 19:45:00,
2013-04-13 15:50:00,71.2,40.5,30.03,West,270,2.1,2.4,33,0.00,,,0.00,WUHU21623XXSP,2013-04-13 19:50:00,
2013-04-13 15:55:00,71.4,40.7,30.03,NNE,22,0.0,6.0,33,0.00,,,0.00,WUHU21623XXSP,2013-04-13 19:55:00,
2013-04-13 16:00:00,71.4,40.7,30.03,SSW,202,1.7,6.0,33,0.00,,,0.00,WUHU21623XXSP,2013-04-13 20:00:00,
2013-04-13 16:05:00,71.4,40.7,30.03,WNW,292,0.0,3.3,33,0.00,,,0.00,WUHU21623XXSP,2013-04-13 20:05:00,
2013-04-13 16:10:00,72.1,41.3,30.02,West,270,0.0,5.7,33,0.00,,,0.00,WUHU21623XXSP,2013-04-13 20:10:00,
2013-04-13 16:15:00,72.1,40.6,30.02,West,270,1.7,6.0,32,0.00,,,0.00,WUHU21623XXSP,2013-04-13 20:15:00,
2013-04-13 16:20:00,72.0,40.4,30.02,West,270,0.0,6.0,32,0.00,,,0.00,WUHU21623XXSP,2013-04-13 20:20:00,
2013-04-13 16:25:00,72.1,40.6,30.02,WNW,292,0.0,1.9,32,0.00,,,0.00,WUHU21623XXSP,2013-04-13 20:25:00,
2013-04-13 16:31:00,72.0,40.4,30.02,WNW,292,1.7,3.0,32,0.00,,,0.00,WUHU21623XXSP,2013-04-13 20:31:00,
2013-04-13 16:36:00,72.1,40.6,30.02,South,180,0.0,3.0,32,0.00,,,0.00,WUHU21623XXSP,2013-04-13 20:36:00,
2013-04-13 16:41:00,72.1,39.1,30.02,ESE,112,2.9,4.4,30,0.00,,,0.00,WUHU21623XXSP,2013-04-13 20:41:00,
2013-04-13 16:46:00,72.0,40.4,30.02,West,270,1.7,4.4,32,0.00,,,0.00,WUHU21623XXSP,2013-04-13 20:46:00,
2013-04-13 16:51:00,71.8,39.5,30.02,WNW,292,0.0,3.3,31,0.00,,,0.00,WUHU21623XXSP,2013-04-13 20:51:00,
2013-04-13 16:56:00,72.0,39.7,30.02,East,90,1.7,1.9,31,0.00,,,0.00,WUHU21623XXSP,2013-04-13 20:56:00,
2013-04-13 17:01:00,71.8,39.5,30.01,East,90,3.5,4.1,31,0.00,,,0.00,WUHU21623XXSP,2013-04-13 21:01:00,
2013-04-13 17:06:00,71.4,39.2,30.01,SSW,202,0.0,4.1,31,0.00,,,0.00,WUHU21623XXSP,2013-04-13 21:06:00,
2013-04-13 17:11:00,71.4,40.0,30.01,WNW,292,0.0,4.1,32,0.00,,,0.00,WUHU21623XXSP,2013-04-13 21:11:00,
2013-04-13 17:16:00,72.0,39.7,30.01,South,180,2.1,6.0,31,0.00,,,0.00,WUHU21623XXSP,2013-04-13 21:16:00,
2013-04-13 17:21:00,72.3,40.7,30.01,ESE,112,2.9,6.0,32,0.00,,,0.00,WUHU21623XXSP,2013-04-13 21:21:00,
2013-04-13 17:26:00,72.1,39.8,30.01,ESE,112,0.0,3.3,31,0.00,,,0.00,WUHU21623XXSP,2013-04-13 21:26:00,
2013-04-13 17:31:00,72.3,40.7,30.01,West,270,0.0,3.3,32,0.00,,,0.00,WUHU21623XXSP,2013-04-13 21:31:00,
2013-04-13 17:36:00,72.3,40.0,30.01,West,270,2.3,2.7,31,0.00,,,0.00,WUHU21623XXSP,2013-04-13 21:36:00,
2013-04-13 17:41:00,72.1,39.8,30.01,West,270,0.0,2.7,31,0.00,,,0.00,WUHU21623XXSP,2013-04-13 21:41:00,
2013-04-13 17:46:00,72.1,39.8,30.01,West,270,0.0,2.7,31,0.00,,,0.00,WUHU21623XXSP,2013-04-13 21:46:00,
2013-04-13 17:52:00,72.3,40.0,30.01,South,180,4.7,5.4,31,0.00,,,0.00,WUHU21623XXSP,2013-04-13 21:52:00,
2013-04-13 17:57:00,72.1,39.8,30.00,WNW,292,0.0,5.4,31,0.00,,,0.00,WUHU21623XXSP,2013-04-13 21:57:00,
2013-04-13 18:02:00,72.1,39.1,30.00,SSW,202,0.0,5.4,30,0.00,,,0.00,WUHU21623XXSP,2013-04-13 22:02:00,
2013-04-13 18:07:00,71.8,38.8,30.00,East,90,0.0,1.7,30,0.00,,,0.00,WUHU21623XXSP,2013-04-13 22:07:00,
2013-04-13 18:12:00,71.4,38.5,30.00,WNW,292,0.0,1.7,30,0.00,,,0.00,WUHU21623XXSP,2013-04-13 22:12:00,
2013-04-13 18:17:00,71.6,40.1,30.01,West,270,1.7,2.4,32,0.00,,,0.00,WUHU21623XXSP,2013-04-13 22:17:00,
2013-04-13 18:22:00,71.6,40.1,30.01,SSW,202,2.6,3.0,32,0.00,,,0.00,WUHU21623XXSP,2013-04-13 22:22:00,
2013-04-13 18:27:00,71.4,39.2,30.01,West,270,0.0,3.0,31,0.00,,,0.00,WUHU21623XXSP,2013-04-13 22:27:00,
2013-04-13 18:32:00,71.6,40.1,30.01,WNW,292,1.2,3.0,32,0.00,,,0.00,WUHU21623XXSP,2013-04-13 22:32:00,
2013-04-13 18:37:00,71.8,41.0,30.01,WNW,292,0.0,1.3,33,0.00,,,0.00,WUHU21623XXSP,2013-04-13 22:37:00,
2013-04-13 18:42:00,71.4,40.7,30.01,WNW,292,0.0,1.3,33,0.00,,,0.00,WUHU21623XXSP,2013-04-13 22:42:00,
2013-04-13 18:47:00,71.4,40.0,30.00,West,270,0.0,0.0,32,0.00,,,0.00,WUHU21623XXSP,2013-04-13 22:47:00,
2013-04-13 18:52:00,71.2,40.5,30.00,North,0,0.0,0.0,33,0.00,,,0.00,WUHU21623XXSP,2013-04-13 22:52:00,
2013-04-13 18:57:00,70.7,40.8,30.00,WNW,292,0.0,0.0,34,0.00,,,0.00,WUHU21623XXSP,2013-04-13 22:57:00,
2013-04-13 19:02:00,70.5,40.6,30.00,SSW,202,7.5,8.7,34,0.00,,,0.00,WUHU21623XXSP,2013-04-13 23:02:00,
2013-04-13 19:08:00,70.3,40.5,30.00,West,270,0.0,8.7,34,0.00,,,0.00,WUHU21623XXSP,2013-04-13 23:08:00,
2013-04-13 19:13:00,69.6,40.6,30.01,North,0,0.0,8.7,35,0.00,,,0.00,WUHU21623XXSP,2013-04-13 23:13:00,
2013-04-13 19:18:00,69.3,40.2,30.00,WNW,292,0.0,0.0,35,0.00,,,0.00,WUHU21623XXSP,2013-04-13 23:18:00,
2013-04-13 19:23:00,68.9,39.9,30.01,North,0,0.0,0.0,35,0.00,,,0.00,WUHU21623XXSP,2013-04-13 23:23:00,
2013-04-13 19:28:00,68.7,39.8,30.01,North,0,0.0,0.0,35,0.00,,,0.00,WUHU21623XXSP,2013-04-13 23:28:00,
2013-04-13 19:33:00,68.5,41.1,30.01,North,0,0.0,0.0,37,0.00,,,0.00,WUHU21623XXSP,2013-04-13 23:33:00,
2013-04-13 19:38:00,68.2,40.0,30.01,WNW,292,0.0,0.0,36,0.00,,,0.00,WUHU21623XXSP,2013-04-13 23:38:00,
2013-04-13 19:43:00,67.6,40.3,30.01,WNW,292,0.0,0.0,37,0.00,,,0.00,WUHU21623XXSP,2013-04-13 23:43:00,
2013-04-13 19:48:00,67.1,41.3,30.01,West,270,0.0,0.0,39,0.00,,,0.00,WUHU21623XXSP,2013-04-13 23:48:00,
2013-04-13 19:53:00,66.0,41.0,30.01,West,270,0.0,0.0,40,0.00,,,0.00,WUHU21623XXSP,2013-04-13 23:53:00,
2013-04-13 19:58:00,65.8,40.9,30.01,South,180,0.0,0.0,40,0.00,,,0.00,WUHU21623XXSP,2013-04-13 23:58:00,
2013-04-13 20:03:00,65.5,41.1,30.01,South,180,0.0,0.0,41,0.00,,,0.00,WUHU21623XXSP,2013-04-14 00:03:00,
2013-04-13 20:08:00,64.2,41.7,30.01,ESE,112,0.0,0.0,44,0.00,,,0.00,WUHU21623XXSP,2013-04-14 00:08:00,
2013-04-13 20:13:00,63.1,41.3,30.02,ESE,112,0.0,0.0,45,0.00,,,0.00,WUHU21623XXSP,2013-04-14 00:13:00,
2013-04-13 20:18:00,62.4,41.8,30.02,ESE,112,0.0,1.7,47,0.00,,,0.00,WUHU21623XXSP,2013-04-14 00:18:00,
2013-04-13 20:23:00,61.7,41.7,30.02,South,180,0.0,1.7,48,0.00,,,0.00,WUHU21623XXSP,2013-04-14 00:23:00,
2013-04-13 20:28:00,61.0,41.7,30.02,South,180,0.0,0.0,49,0.00,,,0.00,WUHU21623XXSP,2013-04-14 00:28:00,
2013-04-13 20:33:00,60.1,41.4,30.02,ESE,112,0.0,0.0,50,0.00,,,0.00,WUHU21623XXSP,2013-04-14 00:33:00,
2013-04-13 20:38:00,59.5,42.8,30.02,ESE,112,0.0,0.0,54,0.00,,,0.00,WUHU21623XXSP,2013-04-14 00:38:00,
2013-04-13 20:43:00,58.8,41.7,30.02,ESE,112,0.0,0.0,53,0.00,,,0.00,WUHU21623XXSP,2013-04-14 00:43:00,
2013-04-13 20:48:00,58.5,41.7,30.03,ESE,112,0.0,0.0,54,0.00,,,0.00,WUHU21623XXSP,2013-04-14 00:48:00,
2013-04-13 20:53:00,57.7,41.7,30.03,ESE,112,0.0,1.7,55,0.00,,,0.00,WUHU21623XXSP,2013-04-14 00:53:00,
2013-04-13 20:58:00,57.4,40.9,30.03,ESE,112,0.0,1.7,54,0.00,,,0.00,WUHU21623XXSP,2013-04-14 00:58:00,
2013-04-13 21:03:00,57.0,41.0,30.03,South,180,0.0,0.0,55,0.00,,,0.00,WUHU21623XXSP,2013-04-14 01:03:00,
2013-04-13 21:09:00,56.3,42.2,30.03,ESE,112,0.0,0.0,59,0.00,,,0.00,WUHU21623XXSP,2013-04-14 01:09:00,
2013-04-13 21:14:00,55.9,40.9,30.03,South,180,0.0,0.0,57,0.00,,,0.00,WUHU21623XXSP,2013-04-14 01:14:00,
2013-04-13 21:19:00,55.6,40.5,30.03,ESE,112,0.0,0.0,57,0.00,,,0.00,WUHU21623XXSP,2013-04-14 01:19:00,
2013-04-13 21:24:00,55.2,40.6,30.03,ESE,112,0.0,0.0,58,0.00,,,0.00,WUHU21623XXSP,2013-04-14 01:24:00,
2013-04-13 21:29:00,55.2,41.1,30.04,ESE,112,0.0,0.0,59,0.00,,,0.00,WUHU21623XXSP,2013-04-14 01:29:00,
2013-04-13 21:34:00,54.3,41.5,30.04,ESE,112,0.0,3.8,62,0.00,,,0.00,WUHU21623XXSP,2013-04-14 01:34:00,
2013-04-13 21:39:00,54.1,41.8,30.04,ESE,112,0.0,3.8,63,0.00,,,0.00,WUHU21623XXSP,2013-04-14 01:39:00,
2013-04-13 21:44:00,54.0,42.4,30.04,East,90,0.0,0.0,65,0.00,,,0.00,WUHU21623XXSP,2013-04-14 01:44:00,
2013-04-13 21:49:00,53.8,42.2,30.04,East,90,0.0,0.0,65,0.00,,,0.00,WUHU21623XXSP,2013-04-14 01:49:00,
2013-04-13 21:54:00,53.4,41.5,30.04,East,90,0.0,1.7,64,0.00,,,0.00,WUHU21623XXSP,2013-04-14 01:54:00,
2013-04-13 21:59:00,53.2,41.3,30.04,ESE,112,0.0,1.7,64,0.00,,,0.00,WUHU21623XXSP,2013-04-14 01:59:00,
2013-04-13 22:04:00,53.2,41.3,30.04,ESE,112,0.0,0.0,64,0.00,,,0.00,WUHU21623XXSP,2013-04-14 02:04:00,
2013-04-13 22:09:00,52.9,41.0,30.04,ESE,112,0.0,0.0,64,0.00,,,0.00,WUHU21623XXSP,2013-04-14 02:09:00,
2013-04-13 22:14:00,52.5,40.6,30.04,ESE,112,0.0,0.0,64,0.00,,,0.00,WUHU21623XXSP,2013-04-14 02:14:00,
2013-04-13 22:19:00,52.3,41.3,30.04,ESE,112,0.0,0.0,66,0.00,,,0.00,WUHU21623XXSP,2013-04-14 02:19:00,
2013-04-13 22:24:00,52.0,40.5,30.05,ESE,112,0.0,0.0,65,0.00,,,0.00,WUHU21623XXSP,2013-04-14 02:24:00,
2013-04-13 22:29:00,51.8,41.2,30.05,East,90,0.0,1.9,67,0.00,,,0.00,WUHU21623XXSP,2013-04-14 02:29:00,
2013-04-13 22:34:00,51.4,40.4,30.04,ESE,112,0.0,1.9,66,0.00,,,0.00,WUHU21623XXSP,2013-04-14 02:34:00,
2013-04-13 22:39:00,51.6,40.6,30.05,ESE,112,0.0,0.0,66,0.00,,,0.00,WUHU21623XXSP,2013-04-14 02:39:00,
2013-04-13 22:44:00,51.6,40.6,30.05,ESE,112,0.0,0.0,66,0.00,,,0.00,WUHU21623XXSP,2013-04-14 02:44:00,
2013-04-13 22:49:00,50.7,40.1,30.04,East,90,0.0,2.4,67,0.00,,,0.00,WUHU21623XXSP,2013-04-14 02:49:00,
2013-04-13 22:54:00,50.5,40.0,30.05,ESE,112,0.0,2.4,67,0.00,,,0.00,WUHU21623XXSP,2013-04-14 02:54:00,
2013-04-13 22:59:00,50.5,40.0,30.05,ESE,112,0.0,1.3,67,0.00,,,0.00,WUHU21623XXSP,2013-04-14 02:59:00,
2013-04-13 23:04:00,50.5,39.6,30.05,ESE,112,0.0,0.0,66,0.00,,,0.00,WUHU21623XXSP,2013-04-14 03:04:00,
2013-04-13 23:10:00,50.4,39.8,30.05,ESE,112,0.0,0.0,67,0.00,,,0.00,WUHU21623XXSP,2013-04-14 03:10:00,
2013-04-13 23:15:00,50.4,39.4,30.05,ESE,112,0.0,0.0,66,0.00,,,0.00,WUHU21623XXSP,2013-04-14 03:15:00,
2013-04-13 23:20:00,50.2,39.6,30.05,ESE,112,0.0,0.0,67,0.00,,,0.00,WUHU21623XXSP,2013-04-14 03:20:00,
2013-04-13 23:25:00,49.8,39.7,30.05,ESE,112,0.0,0.0,68,0.00,,,0.00,WUHU21623XXSP,2013-04-14 03:25:00,
2013-04-13 23:30:00,49.8,39.7,30.05,East,90,0.0,0.0,68,0.00,,,0.00,WUHU21623XXSP,2013-04-14 03:30:00,
2013-04-13 23:35:00,49.6,40.3,30.05,East,90,1.4,1.7,70,0.00,,,0.00,WUHU21623XXSP,2013-04-14 03:35:00,
2013-04-13 23:40:00,49.1,40.1,30.05,East,90,0.0,1.7,71,0.00,,,0.00,WUHU21623XXSP,2013-04-14 03:40:00,
2013-04-13 23:45:00,48.9,39.9,30.05,East,90,0.0,1.7,71,0.00,,,0.00,WUHU21623XXSP,2013-04-14 03:45:00,
2013-04-13 23:50:00,48.7,39.4,30.05,ESE,112,0.0,0.0,70,0.00,,,0.00,WUHU21623XXSP,2013-04-14 03:50:00,
2013-04-13 23:55:00,48.6,39.9,30.05,ESE,112,0.0,1.9,72,0.00,,,0.00,WUHU21623XXSP,2013-04-14 03:55:00,